Regional Weather Roundup
Issued by NWS

Home | Current Version | Previous Version | Graphics & Text | Print | Product List | Glossary On
Versions: 1 2 3 4 5 6 7 8 9 10 11 12 13 14 15 16 17 18 19 20 21 22 23 24 25 26 27 28 29 30 31 32 33 34 35 36 37 38 39 40 41 42 43 44 45 46 47 48 49 50
000
ASUS43 KLMK 302102
RWRKY
KENTUCKY REGIONAL WEATHER ROUNDUP
NATIONAL WEATHER SERVICE LOUISVILLE KY
500 PM EDT SUN APR 30 2017

NOTE "FAIR" INDICATES FEW OR NO CLOUDS BELOW 12,000 FEET
WITH NO SIGNIFICANT WEATHER AND/OR OBSTRUCTIONS TO VISIBILITY.

KYZ001>023-026-027-061>063-070>075-302200-
WESTERN AND SOUTH CENTRAL KENTUCKY

CITY           SKY/WX    TMP DP  RH WIND       PRES   REMARKS
PADUCAH        CLOUDY    73  66  78 S17G25    29.66F
HENDERSON        N/A    N/A N/A N/A MISG        N/A
OWENSBORO      LGT RAIN  78  66  66 S24G32    29.71F
HOPKINSVILLE   CLOUDY    73  66  79 SE18G28   29.72F
BOWLING GREEN  RAIN      77  67  71 S17G30    29.83S
GLASGOW        NOT AVBL
$$

KYZ024-025-028>034-038-045-046-053-302200-
NORTH CENTRAL KENTUCKY

CITY           SKY/WX    TMP DP  RH WIND       PRES   REMARKS
LOUISVILLE/SDF CLOUDY    83  65  54 S18       29.79F
LOUISVILLE/LOU CLOUDY    83  65  54 S14G25    29.80F
FORT KNOX      CLOUDY    81  64  55 S18G31    29.78F
$$

KYZ035>037-039>044-047>052-055>060-089>105-302200-
NORTHEAST KENTUCKY

CITY           SKY/WX    TMP DP  RH WIND       PRES   REMARKS
LEXINGTON      CLOUDY    83  60  45 S22G30    29.87F
COVINGTON      CLOUDY    81  64  56 S18G29    29.82F
FRANKFORT      PTSUNNY   83  60  45 S17G32    29.83F
$$

KYZ054-064>069-076>088-106>120-302200-
SOUTHEAST KENTUCKY

CITY           SKY/WX    TMP DP  RH WIND       PRES   REMARKS
JACKSON        CLOUDY    84  57  39 VRB5      29.94F
LONDON         PTSUNNY   83  57  41 S14G21    29.93F
SOMERSET       NOT AVBL
MIDDLESBORO    CLOUDY    84  58  41 S7G17     29.96F
MONTICELLO     PTCLDY    82  63  52 S18G29    29.92F
$$




USA.gov is the U.S. government's official web portal to all federal, state and local government web resources and services.